Wind_Speed
31 31 30 31 31 32 32 32 33 33 32 31 30 29 28 27 27 26 26 26 26 26 25 24 25 24 23 21 19 18 17 17 17 17 18 18 18 18 18 18 17 16 15
35 35 34 34 34 35 36 36 37 37 36 35 34 33 32 30 30 30 29 28 28 27 27 27 26 27 26 25 23 22 21 20 19 18 19 19 20 20 20 20 19 18 17
37 38 37 37 37 38 39 39 40 40 40 40 37 37 36 34 33 33 32 31 30 30 30 29 29 30 30 29 28 26 25 23 21 21 20 20 21 21 21 22 21 20 19
38 38 39 39 40 41 41 41 42 42 42 42 41 40 37 37 36 35 34 33 32 31 32 31 32 32 32 32 32 30 29 26 25 23 23 22 22 22 23 23 23 23 22
38 40 40 40 41 42 42 42 43 43 43 43 42 40 38 38 37 37 36 35 34 33 33 33 33 33 34 34 34 33 32 30 29 26 25 24 24 24 24 24 24 24 24
38 39 40 41 42 43 43 44 43 43 42 41 39 37 36 35 35 36 36 35 36 35 34 34 35 34 34 34 36 35 34 33 32 30 28 27 26 25 25 25 26 26 25
38 39 40 41 42 42 42 43 43 43 42 40 39 36 33 32 32 32 33 34 35 35 35 34 34 34 34 34 35 37 37 35 33 32 29 28 27 27 27 27 27 27 26
37 38 39 40 42 42 41 41 42 41 40 40 38 34 31 30 30 31 31 32 33 34 33 33 33 33 34 34 35 36 36 36 35 33 31 29 28 27 27 27 28 28 27
37 38 39 40 41 41 41 40 40 39 38 37 36 33 31 30 30 30 31 32 33 33 32 32 31 31 32 32 33 35 36 36 36 35 32 30 29 28 28 28 28 28 28
36 38 38 39 39 40 40 39 39 38 37 35 34 33 33 32 31 31 32 33 33 32 32 31 31 30 30 31 32 33 34 34 35 34 32 31 29 28 28 28 28 29 29
37 38 39 40 40 41 41 40 40 38 37 36 35 34 34 33 33 32 32 32 32 32 31 30 30 29 30 29 30 32 32 33 33 33 33 31 29 28 28 27 28 28 28
37 38 39 40 40 41 42 41 41 40 39 38 36 35 35 34 34 33 32 32 32 31 31 30 30 29 29 29 30 31 32 32 33 33 33 32 30 29 28 27 27 27 27
37 37 38 39 40 41 42 42 41 41 40 39 38 37 36 35 34 33 33 33 32 31 31 30 29 29 28 28 30 31 32 33 33 32 32 32 30 30 29 28 28 27 28
37 37 37 38 39 39 40 41 41 41 40 39 38 38 37 36 35 34 34 32 31 31 31 29 28 28 28 28 28 30 30 31 32 33 33 33 31 30 29 29 29 29 29
37 36 36 36 37 38 38 39 39 40 40 39 38 38 37 36 35 34 34 32 31 31 30 28 27 27 27 27 28 29 29 30 31 32 32 32 32 31 31 31 31 32 32
38 37 36 35 34 34 35 36 37 37 38 38 38 37 36 35 34 33 33 32 31 29 28 27 26 26 26 27 26 27 29 29 29 30 31 31 31 31 31 32 33 33 34
39 38 36 34 33 32 32 33 34 34 35 36 35 34 33 32 31 31 31 30 28 27 26 26 25 25 24 25 26 25 26 26 27 28 28 29 30 31 32 32 33 34 35
39 38 36 33 31 30 29 30 31 31 32 32 31 30 29 28 28 28 28 27 26 26 26 25 24 24 24 24 25 26 26 27 27 28 28 29 30 32 32 33 34 35 35
39 38 35 33 30 29 28 27 27 27 27 27 27 26 26 26 25 25 26 26 25 26 26 25 24 24 24 25 24 25 25 26 26 27 28 28 29 30 32 34 35 36 37
39 38 35 32 29 28 27 26 25 24 23 23 23 23 23 23 23 24 24 24 24 25 24 23 23 23 22 22 22 22 22 23 24 24 25 27 28 30 31 33 35 37 39
39 37 34 30 29 27 25 24 23 21 20 20 19 20 20 21 21 21 22 22 23 23 22 22 22 20 20 19 19 19 20 20 22 23 24 26 28 29 31 33 35 37 39
39 37 33 30 27 25 23 22 21 20 19 17 17 17 18 19 19 19 20 21 21 21 20 20 19 18 18 17 17 17 17 19 20 22 24 26 28 30 32 34 36 38 40
39 36 33 30 27 24 22 21 19 18 17 16 14 15 16 16 17 18 18 18 17 17 16 16 16 15 15 14 14 14 15 17 18 20 21 23 25 27 29 32 34 37 39
39 36 32 29 26 23 21 19 17 17 15 14 13 13 14 14 15 16 15 14 14 14 13 12 11 11 11 11 11 12 13 14 16 18 20 23 25 28 30 32 35 37 39
39 36 32 28 25 22 20 18 16 14 13 12 12 12 13 13 14 13 13 12 11 11 10 9 9 9 9 9 9 10 11 13 15 17 19 22 24 27 30 32 34 37 39
39 36 31 27 25 22 19 16 14 13 12 11 11 11 11 11 11 11 11 11 11 10 9 8 7 7 6 6 7 8 9 11 13 15 17 20 23 26 29 31 33 34 36
Wind_Direction
273 273 273 274 275 276 276 276 276 275 273 273 273 273 273 275 276 275 275 275 274 271 269 268 268 266 265 265 268 271 272 274 275 272 268 265 263 262 261 259 257 255 254
270 269 271 272 274 274 274 275 275 274 272 271 270 269 269 271 273 273 273 273 273 272 270 269 268 265 262 262 262 265 266 268 270 270 269 266 263 261 259 258 257 256 254
270 268 269 270 271 272 273 275 275 276 275 272 270 267 267 267 269 271 271 271 271 271 270 271 269 266 262 260 259 260 261 262 264 267 267 266 263 261 259 257 256 255 254
271 270 269 269 270 272 274 275 275 276 276 275 272 270 268 265 266 268 267 267 268 270 270 271 270 267 263 260 257 257 257 256 259 262 264 264 263 261 259 258 256 255 254
277 273 271 270 270 272 273 274 274 275 278 278 276 272 270 267 265 265 264 264 266 269 270 270 270 267 265 260 256 255 254 253 254 258 260 262 262 261 260 258 256 255 255
281 279 277 273 273 273 274 275 275 276 279 279 279 277 274 271 267 264 264 262 263 267 269 269 268 266 264 260 256 253 252 252 253 254 257 259 260 260 260 258 256 255 255
284 282 280 277 276 276 276 276 277 278 279 280 281 282 278 273 269 267 265 263 263 265 267 268 268 265 263 260 257 253 251 250 251 252 255 257 258 259 258 257 256 254 254
286 283 281 279 278 277 277 277 277 277 279 280 281 280 278 275 272 269 266 267 267 268 268 268 268 265 262 261 258 253 250 249 249 250 254 257 257 257 258 257 255 253 252
288 286 284 281 279 278 278 277 278 277 277 278 279 279 278 276 274 272 271 270 269 270 269 269 267 266 262 260 257 252 249 248 248 249 251 254 255 255 255 255 254 252 250
292 288 284 282 280 278 278 277 278 277 278 279 280 280 279 278 276 272 271 270 270 271 270 268 267 265 262 259 256 252 249 247 247 247 250 252 253 253 253 253 253 251 250
295 290 286 282 279 277 277 276 276 276 277 278 279 280 280 279 277 275 272 270 270 271 270 268 266 265 262 258 254 251 248 246 246 247 248 250 250 250 250 251 251 250 249
299 294 289 284 280 277 275 275 275 275 275 276 277 277 277 277 276 276 274 271 270 270 269 267 265 264 261 256 252 250 247 246 246 246 246 246 247 247 247 248 248 247 246
306 299 293 287 282 278 275 274 273 273 273 274 275 275 275 275 275 274 272 270 269 269 267 265 263 261 258 254 249 249 246 246 245 244 244 244 245 245 246 246 245 245 245
312 306 299 292 285 280 276 274 272 271 272 272 273 274 273 272 273 271 269 269 267 267 266 262 260 259 255 253 250 248 248 246 246 244 244 243 243 243 244 244 243 244 244
313 310 305 297 290 283 278 275 272 270 270 270 271 271 270 270 269 268 267 266 265 263 263 261 259 256 254 254 252 251 249 248 249 246 245 243 242 242 242 242 242 243 243
314 311 308 303 296 288 282 277 273 271 269 269 269 268 268 267 267 264 264 262 260 260 259 258 257 255 253 252 251 251 250 250 250 248 245 244 243 243 242 242 243 244 244
312 311 309 305 299 293 286 280 276 273 269 268 267 266 265 263 262 259 259 257 256 254 252 252 252 251 250 250 250 249 248 246 246 244 243 245 245 245 246 246 246 246 247
309 310 309 306 301 297 291 285 280 276 271 267 265 263 261 259 258 255 253 252 249 248 246 247 248 246 248 249 248 247 246 246 244 243 244 246 248 248 249 250 250 250 250
306 307 307 304 301 298 294 289 284 278 271 265 262 258 257 256 256 253 248 245 244 243 240 241 245 245 246 248 248 247 248 248 247 247 248 250 251 252 252 253 253 253 253
301 303 304 301 299 298 294 290 286 279 270 264 261 257 255 255 253 247 244 242 237 237 237 237 240 242 244 246 246 249 251 251 253 253 255 256 257 257 257 257 257 257 256
295 298 298 297 297 296 293 290 284 278 270 264 261 258 254 252 245 245 241 239 235 235 236 236 237 237 238 240 245 250 253 256 259 260 261 261 262 262 263 263 263 262 260
289 291 291 292 293 292 292 288 282 273 265 260 258 253 249 249 244 245 239 234 234 235 236 235 232 235 237 242 249 253 256 260 263 265 267 268 267 267 267 267 266 265 264
282 284 284 284 285 286 286 286 280 271 260 255 253 251 244 239 240 240 238 237 230 228 229 230 230 232 238 245 251 257 262 267 271 273 274 275 274 274 273 272 271 269 268
276 276 276 278 277 279 279 279 276 268 260 253 249 248 242 238 235 234 229 222 221 219 217 219 223 229 236 244 252 261 268 274 278 281 282 282 282 282 281 279 277 275 273
267 267 267 268 268 269 270 272 270 262 254 248 241 239 235 226 221 216 210 206 203 198 197 203 213 226 237 246 257 268 277 283 287 289 291 293 292 291 288 286 283 281 278
256 257 258 258 258 258 259 260 257 246 239 235 227 221 216 208 204 198 194 190 190 191 195 204 214 223 232 246 261 275 288 295 300 302 303 304 304 301 298 294 291 287 284
Height
5875 5874 5873 5872 5871 5870 5869 5868 5867 5866 5865 5864 5863 5863 5862 5862 5862 5862 5861 5861 5861 5861 5862 5862 5862 5863 5863 5864 5864 5865 5866 5866 5867 5868 5869 5870 5871 5872 5873 5874 5874 5875 5876
5868 5866 5866 5865 5864 5862 5861 5860 5858 5857 5856 5855 5855 5854 5854 5854 5854 5854 5854 5854 5855 5855 5855 5855 5855 5856 5857 5858 5859 5860 5861 5862 5862 5864 5865 5866 5867 5868 5869 5870 5871 5872 5873
5859 5858 5857 5857 5855 5854 5852 5851 5850 5849 5847 5846 5846 5845 5845 5846 5846 5847 5847 5847 5847 5847 5848 5848 5848 5849 5850 5851 5852 5854 5855 5856 5857 5858 5859 5861 5862 5863 5864 5866 5867 5868 5869
5850 5849 5848 5848 5846 5845 5843 5842 5841 5839 5838 5837 5837 5836 5836 5836 5838 5838 5838 5839 5839 5840 5840 5840 5841 5841 5842 5843 5845 5847 5848 5850 5851 5853 5854 5855 5856 5857 5859 5860 5862 5863 5865
5841 5840 5839 5838 5837 5836 5835 5833 5832 5831 5830 5828 5828 5827 5828 5827 5828 5829 5830 5830 5831 5832 5832 5833 5833 5833 5834 5835 5836 5838 5841 5843 5845 5846 5848 5849 5850 5851 5853 5855 5856 5858 5859
5833 5831 5830 5830 5828 5827 5826 5824 5823 5821 5821 5820 5818 5819 5819 5819 5819 5820 5821 5822 5823 5823 5824 5824 5825 5825 5826 5826 5828 5830 5832 5835 5837 5839 5841 5842 5844 5845 5846 5848 5850 5851 5853
5825 5823 5821 5820 5819 5817 5816 5815 5813 5812 5812 5811 5810 5810 5811 5810 5810 5811 5811 5812 5813 5814 5815 5816 5816 5816 5817 5818 5819 5821 5824 5826 5829 5831 5833 5835 5836 5838 5839 5841 5843 5845 5846
5816 5814 5812 5810 5809 5808 5807 5806 5804 5804 5804 5802 5801 5800 5801 5802 5801 5802 5802 5803 5804 5805 5806 5807 5808 5808 5808 5809 5810 5812 5814 5817 5820 5823 5825 5827 5829 5830 5832 5833 5835 5837 5839
5807 5805 5803 5801 5799 5798 5797 5796 5795 5794 5794 5793 5792 5792 5792 5793 5793 5794 5794 5795 5796 5797 5797 5798 5799 5799 5800 5800 5801 5803 5806 5809 5812 5815 5817 5819 5821 5822 5824 5826 5827 5829 5832
5798 5795 5793 5791 5789 5788 5787 5786 5785 5785 5785 5784 5783 5783 5783 5784 5784 5785 5786 5786 5787 5788 5788 5789 5790 5791 5791 5792 5793 5795 5797 5800 5803 5806 5809 5811 5813 5814 5816 5818 5820 5822 5824
5788 5785 5783 5781 5779 5778 5776 5776 5775 5775 5775 5775 5775 5774 5774 5774 5775 5775 5776 5777 5777 5779 5779 5781 5782 5782 5783 5784 5785 5787 5789 5792 5795 5798 5800 5802 5804 5806 5808 5810 5812 5814 5816
5778 5775 5772 5770 5768 5767 5765 5765 5765 5765 5765 5765 5765 5765 5765 5765 5765 5765 5766 5767 5768 5769 5771 5772 5773 5774 5775 5776 5777 5779 5781 5784 5786 5789 5792 5794 5796 5799 5801 5802 5804 5806 5809
5769 5765 5761 5759 5757 5755 5754 5753 5753 5754 5754 5754 5755 5755 5755 5756 5756 5755 5757 5758 5759 5760 5761 5762 5764 5765 5766 5767 5769 5771 5773 5775 5778 5780 5783 5786 5788 5791 5793 5795 5797 5799 5801
5760 5756 5752 5748 5746 5744 5742 5742 5742 5742 5743 5743 5744 5744 5745 5745 5745 5746 5747 5748 5750 5751 5752 5754 5755 5756 5757 5759 5761 5763 5765 5767 5769 5772 5774 5777 5780 5782 5785 5787 5789 5791 5793
5752 5747 5742 5738 5735 5733 5731 5731 5731 5731 5731 5732 5732 5733 5733 5734 5735 5736 5737 5739 5741 5742 5743 5744 5746 5748 5749 5751 5753 5755 5757 5759 5761 5763 5766 5768 5771 5774 5776 5779 5781 5783 5785
5743 5738 5733 5729 5726 5723 5721 5720 5719 5719 5720 5720 5721 5722 5723 5723 5724 5726 5727 5729 5731 5733 5735 5736 5738 5740 5741 5743 5745 5747 5749 5751 5753 5755 5757 5760 5763 5765 5768 5770 5772 5774 5776
5734 5730 5725 5721 5717 5714 5711 5710 5709 5709 5709 5709 5710 5711 5712 5713 5714 5716 5718 5720 5722 5724 5726 5728 5730 5732 5734 5736 5737 5739 5741 5743 5745 5747 5750 5752 5754 5757 5759 5761 5763 5765 5767
5726 5721 5716 5712 5709 5706 5703 5701 5700 5699 5699 5699 5700 5701 5702 5703 5705 5707 5709 5711 5714 5716 5718 5720 5723 5725 5727 5729 5731 5733 5734 5736 5738 5740 5742 5744 5746 5748 5750 5752 5754 5756 5757
5717 5713 5708 5704 5701 5698 5695 5693 5692 5690 5690 5690 5691 5693 5694 5696 5697 5699 5701 5703 5706 5708 5711 5713 5716 5718 5720 5722 5724 5726 5727 5729 5731 5733 5734 5736 5738 5740 5741 5743 5744 5746 5747
5708 5704 5700 5697 5693 5691 5688 5686 5684 5683 5683 5683 5684 5685 5687 5688 5690 5691 5694 5696 5698 5701 5703 5706 5709 5711 5713 5716 5718 5719 5721 5723 5724 5726 5727 5728 5730 5731 5732 5733 5735 5735 5736
5698 5696 5692 5689 5686 5683 5681 5679 5678 5677 5677 5677 5678 5679 5680 5682 5684 5685 5687 5689 5692 5695 5697 5700 5703 5705 5707 5709 5712 5713 5715 5716 5718 5719 5720 5721 5722 5722 5723 5724 5724 5724 5725
5688 5686 5684 5681 5679 5676 5674 5673 5672 5671 5671 5671 5672 5673 5674 5676 5678 5679 5681 5684 5687 5689 5692 5694 5697 5700 5702 5705 5706 5708 5710 5711 5712 5713 5713 5713 5713 5713 5713 5714 5713 5713 5713
5677 5676 5675 5674 5672 5670 5668 5667 5666 5666 5666 5666 5667 5668 5669 5671 5673 5675 5677 5679 5682 5684 5687 5690 5693 5695 5698 5700 5702 5703 5704 5705 5705 5705 5706 5705 5705 5705 5704 5703 5703 5702 5701
5665 5666 5666 5665 5664 5663 5662 5662 5661 5660 5661 5661 5663 5664 5665 5667 5669 5671 5673 5676 5678 5681 5684 5686 5689 5692 5694 5696 5697 5698 5699 5699 5699 5699 5699 5698 5697 5696 5695 5693 5692 5690 5689
5652 5654 5655 5656 5656 5656 5656 5656 5656 5656 5656 5657 5658 5660 5661 5663 5665 5668 5670 5673 5676 5678 5681 5684 5687 5689 5690 5692 5693 5694 5694 5694 5694 5694 5692 5691 5689 5687 5685 5683 5680 5678 5675
5639 5642 5644 5647 5648 5649 5650 5651 5651 5652 5653 5654 5655 5657 5659 5661 5663 5666 5668 5671 5674 5677 5679 5682 5684 5686 5687 5688 5689 5690 5690 5690 5689 5688 5686 5684 5681 5678 5675 5672 5669 5665 5662